Wind_Speed
17 16 16 14 13 12 12 11 10 10 9 9 9 9 9 8 8 9 9 10 11 12 13 14 15 15 16 16 17 17 17 18 18 18 19 19 20 21 21 22 22 23 24
18 17 16 15 14 13 12 11 11 10 10 9 9 9 9 9 10 11 11 12 13 14 15 15 16 16 16 16 17 17 18 19 19 20 21 21 22 22 23 23 23 24 25
18 17 16 15 14 13 13 12 11 11 10 10 10 10 10 10 11 11 12 13 14 15 15 15 16 16 17 18 18 19 20 20 21 21 22 22 22 23 23 24 25 25 26
18 17 16 15 14 14 13 13 12 12 11 10 10 10 10 11 11 12 13 14 15 15 16 16 16 17 18 19 20 21 21 21 21 22 23 23 23 24 25 25 26 26 27
18 17 17 16 15 14 13 13 12 12 11 10 10 11 11 12 12 13 14 15 15 15 16 17 18 18 19 20 21 21 22 22 23 23 24 25 25 26 26 27 27 27 28
18 17 16 16 15 14 13 13 12 12 11 11 11 11 12 13 13 14 15 15 16 16 17 18 19 19 20 21 21 22 23 24 24 25 25 26 26 27 27 28 28 29 29
17 17 16 15 15 14 14 13 13 12 12 12 12 12 13 14 14 15 15 16 17 17 18 19 19 20 21 22 23 24 25 25 26 26 27 27 28 28 29 29 30 30 30
16 16 15 15 14 14 13 13 13 13 13 13 13 13 14 14 14 15 16 17 17 18 18 19 20 21 22 23 24 25 26 26 27 28 28 29 29 30 30 30 31 31 31
15 15 15 15 14 14 13 13 13 13 13 13 13 13 14 14 15 16 17 17 18 18 19 20 21 22 23 24 25 26 27 27 28 29 29 30 30 31 31 32 32 32 33
15 15 15 14 14 13 13 13 13 14 14 14 14 14 14 15 16 17 18 18 19 20 21 22 23 24 25 26 27 27 28 29 29 30 30 31 31 32 33 33 34 34 34
16 15 15 14 14 14 14 15 14 14 14 14 15 15 16 17 18 18 19 19 20 21 22 23 24 25 26 27 28 28 29 30 31 31 31 32 32 33 34 34 35 35 36
16 16 16 15 15 15 15 15 15 15 15 16 16 17 17 18 19 19 20 21 22 23 24 25 26 27 28 29 29 30 30 31 31 32 33 33 34 34 35 35 36 36 36
17 16 16 16 15 15 15 15 16 16 16 17 17 18 19 19 20 21 22 23 24 25 26 27 28 29 29 30 30 31 31 32 32 33 34 34 35 35 36 36 37 37 37
18 17 17 17 16 16 16 17 17 17 18 18 19 19 20 21 22 23 24 25 26 27 28 28 29 30 30 31 31 32 33 33 34 34 35 35 36 36 37 37 38 38 38
20 19 19 18 18 18 18 19 19 19 19 20 21 21 22 23 24 24 26 27 27 28 29 30 30 31 32 32 33 33 34 35 35 36 36 36 37 37 37 38 38 39 39
22 22 21 20 20 20 20 20 21 21 21 22 22 23 24 24 25 26 27 28 29 29 30 31 31 32 33 33 34 35 35 36 36 37 37 37 38 38 38 39 39 39 39
25 24 23 23 22 22 22 22 22 22 23 23 24 25 26 26 27 28 28 29 30 30 31 32 32 33 34 34 35 36 36 36 37 38 38 38 39 39 39 39 39 39 40
27 26 25 24 24 24 24 23 24 24 25 25 26 27 27 28 28 29 29 30 31 32 32 33 33 34 35 35 36 36 37 37 38 38 39 39 39 39 39 40 40 40 41
29 28 27 27 26 26 26 26 26 26 27 27 28 29 29 29 30 30 31 31 32 33 33 34 35 35 36 36 37 37 37 38 39 39 39 39 39 40 40 40 40 41 41
31 30 30 29 29 29 28 28 28 28 29 29 30 30 30 30 31 31 32 33 33 34 34 35 35 36 37 37 38 38 38 39 39 39 40 40 40 40 40 41 42 42 42
33 32 31 31 31 30 30 30 30 30 30 31 31 32 31 31 32 33 33 33 34 34 35 36 36 37 37 38 38 38 39 39 39 40 41 41 41 41 41 42 42 41 42
35 34 33 33 33 32 32 32 32 32 32 32 33 32 33 33 34 34 34 34 35 35 36 37 37 38 38 38 39 39 39 39 40 41 41 42 42 41 42 42 42 42 43
36 35 35 35 34 34 34 34 34 33 33 33 34 34 35 35 35 35 35 36 36 36 37 37 38 38 38 39 39 39 40 40 40 41 41 42 42 42 42 43 43 43 43
37 37 36 36 36 36 36 36 35 34 34 35 36 36 36 36 36 36 36 36 36 37 38 38 38 39 39 39 40 41 41 41 41 41 41 42 42 43 43 44 44 44 44
39 39 38 37 37 37 36 36 36 35 35 36 37 37 37 37 37 37 37 37 37 38 39 39 39 39 39 40 40 41 41 41 42 42 42 42 43 43 44 44 44 45 46
40 40 39 38 37 37 37 37 36 36 36 37 37 37 38 38 37 37 37 38 38 39 39 39 38 39 39 40 41 41 41 42 42 43 42 43 43 44 44 45 46 47 48
Wind_Direction
222 222 224 225 227 229 232 235 240 243 246 252 258 264 269 273 278 283 288 292 295 296 297 298 298 297 297 297 297 296 296 295 295 294 294 294 293 292 291 291 290 290 289
223 224 225 226 227 230 234 238 241 245 250 256 261 267 273 278 283 287 290 293 295 296 296 296 297 298 297 298 298 298 298 296 295 295 295 294 292 291 290 289 289 289 289
222 223 224 225 228 231 235 239 243 249 255 259 263 269 275 280 284 288 291 294 295 297 297 298 298 298 299 299 300 300 299 298 297 296 295 295 294 292 291 290 290 289 288
222 223 225 227 230 234 237 241 246 250 255 259 264 270 277 282 286 289 292 294 296 297 297 297 298 298 298 299 299 298 298 297 297 296 296 295 294 293 293 291 290 289 288
223 225 227 229 232 235 240 243 247 250 253 259 265 272 278 283 286 290 293 295 296 297 297 297 297 298 298 298 298 297 296 297 297 296 295 295 294 294 293 293 292 291 290
224 225 227 229 232 236 240 244 248 250 254 260 267 274 280 284 287 290 292 294 294 295 296 296 297 297 298 297 297 297 296 296 296 296 295 294 294 294 293 293 292 291 290
222 224 226 228 232 236 241 244 246 251 257 263 269 275 280 282 285 288 290 292 293 295 296 296 297 298 298 298 297 297 297 296 296 295 295 294 294 294 293 293 292 291 290
218 221 224 229 233 237 239 243 247 254 260 267 272 277 280 282 285 288 291 293 295 296 297 298 298 298 298 299 298 298 297 297 296 295 295 294 294 294 293 292 292 291 290
218 222 227 230 234 237 241 245 250 256 262 268 272 276 280 283 286 290 292 294 295 296 297 298 299 300 300 300 299 299 298 297 297 296 295 295 295 294 294 293 292 291 291
220 224 228 232 235 239 243 248 252 258 264 268 272 276 280 283 286 290 292 294 296 297 298 299 300 301 301 301 300 299 298 298 298 297 296 296 295 295 294 293 292 291 290
223 227 231 235 239 243 248 251 255 260 265 269 273 277 280 283 286 288 291 293 296 298 298 299 300 300 301 300 300 299 299 299 298 298 297 296 296 295 295 294 293 292 291
227 230 234 239 244 248 250 254 258 263 267 271 274 278 281 284 286 288 290 293 295 297 298 298 298 299 300 300 300 300 300 299 299 298 298 298 297 296 296 295 294 293 292
231 234 237 241 246 251 254 258 262 265 268 272 276 280 283 285 286 288 291 293 295 297 298 298 298 298 299 299 300 300 300 299 299 299 299 298 298 298 297 296 295 294 293
234 237 241 244 249 253 257 261 264 267 269 273 278 281 284 285 287 289 291 293 295 296 297 298 298 298 298 299 299 300 300 300 300 300 300 299 299 299 298 297 296 295 294
238 240 243 247 251 255 258 262 265 269 273 276 280 282 285 286 288 290 292 294 295 296 297 298 298 298 298 299 299 300 301 300 300 301 300 300 300 299 298 297 296 295 294
241 243 247 250 253 257 260 263 267 271 275 278 281 283 284 286 288 290 293 294 294 295 296 297 297 298 298 299 300 300 300 300 300 300 300 300 300 299 299 298 297 296 295
242 245 249 252 255 259 262 265 268 272 275 279 281 283 285 286 288 290 292 293 294 295 296 296 297 298 298 299 299 299 299 300 300 300 300 301 300 300 300 299 298 297 296
244 247 250 253 257 260 263 267 270 273 276 279 281 283 285 287 288 290 291 292 293 294 295 296 297 297 298 298 299 299 299 300 300 300 301 301 301 300 300 299 298 297 297
245 247 250 254 257 261 264 267 271 273 276 278 281 283 284 286 288 289 291 291 292 293 294 295 296 297 298 299 299 299 300 300 301 301 301 301 301 301 301 300 300 299 298
246 248 251 255 258 261 265 267 271 273 275 277 279 282 284 285 286 287 289 290 291 292 293 294 295 296 297 298 298 299 300 301 301 301 302 302 302 301 301 301 301 301 300
247 249 252 255 258 262 265 267 270 272 274 277 279 281 283 283 284 286 288 289 290 291 292 293 295 296 297 297 298 299 300 301 301 302 303 303 303 303 303 303 303 302 302
248 250 253 256 259 261 264 267 269 271 274 276 279 281 281 282 283 285 287 288 289 291 292 293 294 295 296 297 298 299 300 301 302 303 303 304 304 303 304 304 303 303 303
249 251 254 256 259 261 264 266 269 271 273 275 277 279 280 281 283 286 287 287 288 290 292 293 294 295 296 297 298 298 299 300 301 303 303 304 304 304 304 304 304 304 304
250 252 254 256 259 261 264 266 269 271 272 274 275 277 279 282 283 284 285 286 288 290 292 293 294 295 296 296 297 298 300 301 302 303 303 304 304 304 304 304 304 304 304
251 252 254 256 258 261 263 265 267 269 271 273 275 277 279 280 281 282 284 286 287 289 291 292 293 294 295 296 297 298 300 301 302 303 304 304 305 305 305 305 305 305 305
251 252 254 256 258 260 262 264 266 268 270 272 274 276 278 279 280 281 283 285 287 289 291 292 293 294 295 296 297 299 300 301 302 303 304 304 305 305 306 305 305 306 305
Height
5860 5861 5863 5864 5866 5867 5868 5869 5869 5870 5871 5871 5871 5872 5872 5872 5873 5873 5873 5873 5873 5873 5873 5873 5872 5872 5871 5871 5870 5869 5869 5868 5868 5867 5866 5866 5865 5864 5863 5862 5861 5860 5859
5858 5859 5861 5862 5864 5865 5866 5867 5867 5868 5869 5869 5870 5870 5870 5871 5871 5871 5871 5871 5871 5871 5870 5870 5870 5869 5868 5868 5867 5866 5866 5865 5864 5864 5863 5862 5861 5860 5859 5858 5857 5856 5855
5855 5857 5858 5860 5861 5863 5864 5865 5866 5866 5867 5867 5868 5868 5869 5869 5869 5869 5869 5869 5869 5868 5868 5868 5867 5866 5866 5865 5864 5863 5862 5862 5861 5860 5859 5858 5857 5856 5855 5854 5853 5851 5850
5853 5854 5856 5858 5859 5860 5861 5862 5864 5864 5865 5865 5866 5866 5867 5867 5867 5867 5867 5866 5866 5866 5865 5865 5864 5864 5863 5862 5861 5860 5859 5858 5857 5856 5855 5854 5853 5851 5850 5849 5848 5846 5845
5850 5852 5854 5855 5857 5858 5859 5860 5861 5862 5863 5863 5864 5864 5864 5865 5865 5865 5864 5864 5864 5863 5863 5862 5861 5861 5860 5859 5858 5857 5856 5854 5853 5852 5851 5849 5848 5847 5845 5844 5843 5841 5840
5848 5849 5851 5853 5854 5856 5857 5858 5859 5860 5860 5861 5862 5862 5862 5862 5862 5862 5862 5861 5861 5860 5860 5859 5858 5857 5856 5855 5854 5853 5852 5851 5849 5848 5846 5845 5843 5842 5840 5839 5837 5836 5834
5845 5847 5849 5850 5852 5853 5854 5855 5856 5857 5858 5858 5859 5859 5859 5859 5859 5859 5859 5858 5858 5857 5856 5856 5855 5854 5853 5852 5850 5849 5848 5846 5845 5843 5842 5840 5839 5837 5835 5834 5832 5830 5829
5843 5845 5846 5848 5849 5851 5852 5853 5854 5855 5855 5856 5856 5856 5856 5856 5856 5856 5856 5855 5854 5854 5853 5852 5851 5850 5849 5848 5846 5845 5843 5842 5840 5838 5837 5835 5833 5832 5830 5828 5826 5825 5823
5841 5842 5844 5846 5847 5848 5849 5850 5851 5852 5852 5853 5853 5853 5853 5853 5853 5853 5852 5852 5851 5850 5849 5848 5847 5846 5845 5843 5842 5840 5838 5837 5835 5833 5832 5830 5828 5826 5824 5822 5820 5819 5817
5838 5840 5842 5843 5844 5845 5846 5847 5848 5849 5849 5850 5850 5850 5850 5850 5850 5849 5849 5848 5847 5846 5845 5844 5843 5842 5840 5839 5837 5835 5833 5831 5830 5828 5826 5824 5822 5820 5818 5816 5814 5812 5810
5835 5837 5839 5840 5841 5842 5843 5844 5845 5846 5846 5847 5847 5847 5847 5847 5846 5846 5845 5844 5844 5842 5841 5840 5838 5837 5835 5834 5832 5830 5828 5826 5824 5822 5820 5818 5816 5814 5812 5809 5807 5805 5803
5832 5834 5835 5837 5838 5839 5840 5840 5841 5842 5843 5843 5843 5843 5843 5843 5842 5842 5841 5840 5839 5838 5836 5835 5834 5832 5830 5828 5826 5824 5823 5820 5818 5816 5814 5812 5809 5807 5805 5803 5800 5798 5796
5829 5830 5832 5833 5834 5835 5836 5837 5838 5839 5839 5839 5839 5839 5839 5839 5838 5838 5837 5836 5834 5833 5832 5830 5828 5827 5825 5823 5821 5819 5817 5814 5812 5810 5808 5805 5803 5800 5798 5796 5793 5791 5789
5825 5827 5828 5830 5831 5832 5833 5833 5834 5835 5835 5835 5835 5835 5835 5834 5834 5833 5832 5831 5829 5828 5826 5824 5823 5821 5819 5817 5815 5813 5810 5808 5806 5803 5801 5798 5796 5793 5791 5788 5786 5783 5781
5821 5823 5824 5826 5827 5828 5829 5829 5830 5830 5831 5831 5831 5831 5830 5829 5829 5828 5827 5825 5824 5822 5821 5819 5817 5815 5813 5811 5809 5806 5804 5801 5799 5797 5794 5792 5789 5786 5783 5781 5778 5776 5773
5816 5818 5820 5821 5822 5823 5824 5825 5825 5826 5826 5826 5826 5825 5825 5824 5823 5822 5821 5820 5818 5817 5815 5813 5811 5809 5807 5805 5802 5800 5797 5795 5792 5790 5787 5784 5782 5779 5776 5773 5770 5768 5765
5811 5813 5815 5816 5817 5818 5819 5820 5820 5820 5821 5821 5820 5820 5819 5819 5818 5817 5815 5814 5812 5810 5809 5807 5805 5802 5800 5798 5796 5793 5791 5788 5786 5783 5780 5777 5774 5771 5768 5765 5762 5759 5757
5806 5807 5809 5811 5812 5813 5814 5815 5815 5815 5815 5815 5814 5814 5813 5813 5812 5810 5809 5808 5806 5804 5802 5800 5798 5796 5794 5791 5789 5787 5784 5781 5779 5776 5773 5770 5767 5764 5761 5758 5754 5751 5748
5800 5801 5803 5805 5806 5807 5808 5809 5809 5810 5809 5809 5808 5808 5807 5806 5805 5804 5803 5801 5799 5798 5796 5794 5791 5789 5787 5784 5782 5779 5777 5774 5771 5768 5765 5762 5759 5756 5753 5749 5746 5743 5739
5793 5795 5797 5799 5800 5801 5802 5803 5803 5803 5803 5803 5802 5801 5801 5800 5799 5798 5796 5794 5793 5791 5789 5787 5784 5782 5780 5777 5775 5772 5769 5766 5763 5760 5757 5754 5751 5748 5744 5741 5738 5734 5731
5786 5788 5790 5792 5793 5794 5795 5796 5797 5797 5797 5796 5796 5795 5794 5793 5792 5791 5789 5788 5786 5784 5782 5780 5777 5775 5773 5770 5768 5765 5762 5759 5756 5753 5749 5746 5743 5739 5736 5732 5729 5725 5722
5779 5781 5783 5785 5786 5787 5789 5789 5790 5790 5790 5789 5789 5788 5787 5786 5785 5784 5782 5781 5779 5777 5775 5773 5770 5768 5765 5763 5760 5757 5755 5752 5748 5745 5741 5738 5734 5731 5727 5724 5720 5716 5713
5771 5774 5776 5777 5778 5780 5780 5781 5782 5782 5782 5782 5781 5780 5779 5778 5777 5776 5775 5773 5771 5769 5767 5765 5763 5760 5758 5755 5752 5750 5747 5744 5741 5737 5733 5730 5726 5722 5718 5714 5711 5707 5703
5763 5765 5767 5769 5770 5771 5772 5773 5774 5775 5775 5774 5773 5772 5772 5771 5770 5769 5767 5765 5764 5762 5760 5757 5755 5753 5750 5747 5744 5741 5739 5735 5733 5729 5726 5721 5717 5713 5709 5705 5701 5697 5694
5753 5756 5758 5760 5762 5763 5764 5765 5766 5767 5767 5766 5765 5765 5764 5763 5762 5761 5759 5758 5756 5754 5752 5750 5747 5745 5742 5739 5736 5733 5730 5727 5723 5721 5717 5713 5709 5704 5700 5696 5692 5688 5684
5744 5747 5749 5752 5754 5755 5756 5757 5758 5758 5758 5758 5757 5757 5756 5755 5754 5753 5751 5750 5748 5746 5744 5742 5739 5737 5734 5731 5728 5725 5722 5719 5715 5712 5708 5704 5700 5696 5691 5686 5682 5677 5673